Location: Hungerford
(51.4167°N, 1.5167°W)
Time: 07:41:04
(UTC+00:00)

Cosmos 1048 Rocket - Pass Details

Date: 18 January 2021
Orbit: 744 x 791 km, 74.0° (Epoch: 24 February)

Event Time Altitude Azimuth Distance (km) Brightness Sun altitude
Rises 19:44:24 0° 339° (NNW) 3,199 7.5 -29.4°
Reaches altitude 10° 19:47:01 10° 350° (N) 2,270 6.6 -29.8°
Enters shadow 19:47:53 14° 355° (N) 1,994 6.2 -29.9°
